Location: Nitra
(0.0000°N, 18.0833°E)
Time: 12:06:14
(UTC+01:00)

Cosmos 1992 Rocket - Pass Details

Date: 25 September 2022
Orbit: 757 x 766 km, 74.0° (Epoch: 26 November)

Event Time Altitude Azimuth Distance (km) Brightness Sun altitude
Rises 18:59:14 0° 346° (NNW) 3,207 7.4 -5.0°
Reaches altitude 10° 19:01:35 10° 345° (NNW) 2,286 6.7 -5.6°
Maximum altitude 19:06:46 80° 259° (WSW) 777 4.2 -6.9°
Drops below altitude 10° 19:12:00 10° 171° (S) 2,300 6.4 -8.2°
Sets 19:14:22 0° 170° (S) 3,229 7.1 -8.8°
